This demonstration page uses our WeatherBlox Daily Observations layout. Learn more.

Left ArrowRight Arrow

Hourly Observations for December 16, 2019

Temp ( °F °C ) Dew Point ( °F °C ) Humidity (%) Winds ( mph kmh ) Pressure ( in mb ) Visibility ( mi km ) Precip ( " mm )
12:09 am 00:09 Mostly Cloudy with Light Snow 12 -11 10 -12 92 92 Calm 30.23 1024 0 0 0.00 0.00
12:14 am 00:14 Mostly Cloudy with Light Snow 12 -11 9 -13 85 85 Calm 30.23 1024 1 1 0.00 0.00
12:19 am 00:19 Mostly Clear with Mist and Fog 10 -12 9 -13 92 92 Calm 30.24 1024 1 1 0.00 0.00
12:26 am 00:26 Partly Cloudy with Isolated Snow Showers 10 -12 7 -14 85 85 NW 3 6 30.23 1024 1 1 0.00 0.00
12:29 am 00:29 Partly Cloudy with Isolated Snow Showers 9 -13 7 -14 92 92 NW 5 7 30.24 1024 1 2 0.00 0.00
12:32 am 00:32 Partly Cloudy with Isolated Snow Showers 9 -13 7 -14 92 92 NW 3 6 30.24 1024 2 3 0.00 0.00
12:36 am 00:36 Partly Cloudy with Isolated Snow Showers 9 -13 7 -14 92 92 NNW 5 7 30.25 1024 1 2 0.00 0.00
12:38 am 00:38 Partly Cloudy with Isolated Snow Showers 9 -13 7 -14 92 92 NW 6 9 30.25 1024 1 1 0.00 0.00
12:47 am 00:47 Partly Cloudy with Isolated Snow Showers 9 -13 7 -14 92 92 NW 7 11 30.25 1024 0 0 0.00 0.00
12:56 am 00:56 Cloudy with Light Snow 8 -13.3 6 -14.4 92 92 WNW 7 11 30.14 1021 0 0 0.00 0.00
1:09 am 01:09 Cloudy with Light Snow 9 -13 7 -14 92 92 WNW 8 13 30.25 1024 1 1 0.00 0.00
1:11 am 01:11 Cloudy with Light Snow 9 -13 7 -14 92 92 WNW 8 13 30.25 1024 1 2 0.00 0.00
1:19 am 01:19 Cloudy with Light Snow 10 -12 9 -13 92 92 WNW 8 13 30.24 1024 3 4 0.00 0.00
1:31 am 01:31 Mostly Cloudy with Mist and Fog 10 -12 9 -13 92 92 WNW 7 11 30.24 1024 5 8 0.00 0.00
1:48 am 01:48 Mostly Clear with Mist and Fog 10 -12 9 -13 92 92 WNW 7 11 30.23 1024 6 10 0.00 0.00
1:56 am 01:56 Mostly Clear with Mist and Fog 12 -11.1 10 -12.2 92 92 WNW 9 15 30.13 1020 5 8 0.00 0.00
2:56 am 02:56 Clear 15 -9.4 12 -11.1 88 88 WNW 7 11 30.17 1022 8 13 0.00 0.00
3:56 am 03:56 Clear 14 -10 12 -11.1 92 92 WNW 7 11 30.19 1022 10 16 0.00 0.00
4:56 am 04:56 Clear 15 -9.4 13 -10.6 91 91 Calm 30.20 1023 10 16 0.00 0.00
5:56 am 05:56 Clear 15 -9.4 13 -10.6 91 91 Calm 30.21 1023 10 16 0.00 0.00
6:56 am 06:56 Clear 14 -10 12 -11.1 92 92 NW 7 11 30.23 1024 10 16 0.00 0.00
7:56 am 07:56 Sunny 15 -9.4 13 -10.6 91 91 WNW 7 11 30.24 1024 10 16 0.00 0.00
8:56 am 08:56 undefined 16 -8.9 14 -10 92 92 WNW 7 11 30.26 1025 10 16 0.00 0.00
9:56 am 09:56 Sunny 19 -7.2 17 -8.3 92 92 NW 6 9 30.27 1025 10 16 0.00 0.00
10:56 am 10:56 Sunny 22 -5.6 20 -6.7 92 92 NW 7 11 30.28 1025 10 16 0.00 0.00
11:56 am 11:56 Sunny 28 -2.2 25 -3.9 88 88 NW 9 15 30.26 1025 10 16 0.00 0.00
12:56 pm 12:56 Sunny 34 1.1 24 -4.4 67 67 NW 7 11 30.25 1025 10 16 0.00 0.00
1:56 pm 13:56 Sunny 35 1.7 23 -5 61 61 WNW 8 13 30.24 1024 10 16 0.00 0.00
2:56 pm 14:56 Sunny 31 -0.6 23 -5 72 72 NW 5 7 30.26 1025 10 16 0.00 0.00
3:56 pm 15:56 Sunny 31 -0.6 24 -4.4 76 76 NW 5 7 30.27 1025 10 16 0.00 0.00
4:56 pm 16:56 Sunny 29 -1.7 23 -5 78 78 NW 5 7 30.29 1026 10 16 0.00 0.00
5:56 pm 17:56 Clear 27 -2.8 23 -5 85 85 NW 6 9 30.31 1026 10 16 0.00 0.00
6:56 pm 18:56 Clear 21 -6.1 19 -7.2 92 92 WNW 6 9 30.33 1027 10 16 0.00 0.00
7:56 pm 19:56 Clear 19 -7.2 17 -8.3 92 92 W 6 9 30.34 1027 10 16 0.00 0.00
8:56 pm 20:56 Clear 18 -7.8 16 -8.9 92 92 NW 9 15 30.34 1028 10 16 0.00 0.00
9:56 pm 21:56 Mostly Clear 19 -7.2 17 -8.3 92 92 W 7 11 30.34 1027 10 16 0.00 0.00
10:56 pm 22:56 Clear 16 -8.9 14 -10 92 92 WNW 9 15 30.34 1028 10 16 0.00 0.00
11:56 pm 23:56 Cloudy 19 -7.2 17 -8.3 92 92 WNW 9 15 30.34 1027 10 16 0.00 0.00

Powered by AerisWeather